Theta_e
350 348 346 346 346 345 345 345 346 346 347 346 346 346 344 343 340 339 340 340 340 340 336 334 334 336 336 337 338 337 336 335 334 332 330 330 333 338 339 340 341 341 341 341 341 340 339 338 338 338 339 339 339 341 341 342 343 343 343 344 345 345 344 344 343 344 343 340 337 336 335 332 332 332 332 332 334 336 338 341 342 341 340 339 337
350 348 347 347 346 346 345 345 346 346 347 346 345 344 344 342 339 338 338 339 339 339 337 335 332 332 335 336 335 335 334 333 332 331 331 333 336 338 339 340 340 340 340 339 340 340 339 338 338 338 339 339 339 340 341 342 343 342 342 343 343 343 343 343 343 343 343 341 340 340 337 332 331 330 330 331 332 333 336 339 342 341 340 339 338
350 347 347 347 346 346 344 345 345 345 345 346 345 344 343 341 340 340 341 341 341 340 339 336 333 332 332 334 334 334 333 332 331 330 333 336 338 339 339 340 340 339 339 339 339 339 339 338 338 339 339 339 339 340 341 341 341 341 342 341 342 342 341 342 343 343 342 341 342 342 340 335 331 331 331 332 333 333 336 339 341 341 339 339 338
349 347 347 346 345 344 343 344 344 344 344 344 344 344 344 342 343 343 344 344 344 343 341 339 337 336 334 333 334 335 333 331 331 332 336 338 339 339 339 339 339 338 338 338 338 338 339 338 338 338 338 339 340 340 341 340 340 340 340 340 340 342 341 341 343 343 342 340 343 342 343 340 332 333 333 334 334 334 337 339 340 340 339 339 337
350 347 347 346 345 345 343 343 343 343 342 343 343 343 344 343 344 345 345 345 345 344 343 341 340 339 336 334 334 334 333 332 333 336 339 339 339 338 338 339 337 337 337 337 337 338 338 339 338 338 338 338 339 340 340 341 340 340 340 339 338 341 341 341 342 343 342 340 344 344 344 343 335 333 335 335 336 336 338 339 339 340 339 338 338
348 347 347 346 346 345 344 343 342 343 343 344 344 344 344 343 344 345 345 345 345 344 343 341 340 339 337 335 334 333 334 335 336 338 339 338 339 338 338 338 337 336 336 337 337 337 337 338 338 338 338 338 339 339 340 341 341 341 341 340 338 340 341 340 341 342 342 341 344 345 345 345 339 334 335 336 336 336 338 339 339 340 339 338 339
347 347 347 347 346 346 344 343 343 343 343 345 344 344 345 344 344 344 345 345 345 344 342 341 339 338 337 335 333 333 335 336 338 339 338 338 339 338 337 337 336 335 335 337 336 336 337 338 337 337 337 338 340 340 339 340 341 341 341 341 340 340 340 340 341 342 341 342 345 345 344 346 342 335 335 336 335 336 337 338 339 339 339 339 339
348 347 347 345 345 345 345 344 345 344 344 345 345 345 344 344 344 344 344 345 345 343 341 341 338 336 335 334 333 334 336 338 340 340 338 338 338 337 337 336 336 335 335 336 336 336 336 336 336 336 336 337 338 340 339 339 340 341 341 341 341 341 340 341 341 341 340 341 344 344 343 345 344 337 334 335 335 335 336 337 339 339 339 340 340
349 348 348 347 344 344 345 345 345 344 343 344 344 344 343 343 343 343 343 343 342 341 341 340 337 336 335 335 334 334 337 340 340 339 338 338 337 336 336 336 336 336 335 335 335 335 336 336 335 335 335 336 337 339 338 339 339 340 341 341 342 341 341 342 342 340 340 342 344 343 342 345 346 339 334 335 335 335 337 339 339 340 340 340 340
350 349 349 347 343 343 345 345 344 343 343 344 344 344 343 343 342 342 342 341 340 340 340 338 337 336 336 336 335 336 339 340 340 339 337 337 336 335 336 337 337 336 336 335 335 336 336 336 335 335 335 336 336 337 338 338 338 338 340 340 341 340 340 341 342 341 342 345 345 341 338 343 346 340 335 336 335 336 339 340 340 340 341 341 340
352 350 349 344 340 342 344 344 344 343 344 344 344 344 343 342 341 341 341 341 340 340 339 338 337 337 337 337 337 339 340 340 339 338 337 336 335 335 336 337 337 337 336 335 335 337 337 336 336 336 335 336 336 336 338 338 338 339 339 339 339 340 340 340 343 343 342 345 347 344 339 342 344 338 334 336 336 336 337 339 340 340 341 341 340
352 350 348 343 338 340 343 344 344 344 344 344 345 344 342 341 341 341 341 340 340 340 340 339 339 338 338 338 339 340 340 338 337 337 337 335 334 335 337 337 336 335 335 335 336 337 337 337 336 336 336 336 337 336 337 338 337 339 339 339 339 340 341 341 343 344 344 345 347 347 345 346 341 333 334 336 336 335 334 336 339 340 340 340 340
352 349 348 344 339 340 343 344 344 344 344 344 345 344 342 342 342 342 341 340 340 340 341 340 340 340 341 340 339 339 338 337 337 337 336 333 334 336 337 336 334 333 335 337 337 337 337 336 336 336 336 336 337 336 337 337 337 338 340 340 340 340 342 342 342 344 345 345 346 347 347 346 338 330 333 335 337 336 335 336 337 339 340 339 339
352 350 348 344 340 341 343 344 344 344 344 344 344 344 344 344 344 344 343 342 342 341 341 341 341 342 342 341 339 339 338 337 336 336 334 333 335 336 336 334 333 335 337 338 338 337 337 336 335 335 336 336 336 336 336 337 338 338 340 341 341 340 341 343 343 344 344 343 345 346 345 344 337 332 332 333 336 338 337 337 336 337 339 339 338
353 352 348 345 343 342 343 344 344 344 344 344 343 343 344 345 345 344 343 342 342 341 341 340 341 341 342 341 340 339 337 336 334 333 333 335 336 335 333 333 335 337 338 339 339 338 338 337 335 335 335 335 335 335 336 338 338 339 340 341 341 340 340 343 345 346 345 341 341 343 344 340 334 334 334 332 334 338 339 339 337 336 337 338 337
354 352 349 345 344 344 344 344 344 344 344 344 344 343 343 345 345 344 343 341 341 340 340 340 340 340 340 340 340 339 336 333 332 331 333 336 336 333 333 335 337 337 338 338 339 339 338 337 336 335 335 334 334 334 336 338 338 339 340 340 340 339 339 342 346 347 344 341 341 343 344 340 334 334 336 333 332 337 339 339 339 336 336 337 336
354 352 349 346 345 345 345 344 344 344 345 345 344 344 344 344 344 343 342 341 341 340 340 340 340 340 339 339 338 336 333 331 332 332 334 336 335 333 334 337 337 337 338 339 339 339 338 336 335 335 335 334 335 335 336 339 338 340 340 339 339 339 338 341 346 346 342 342 342 342 345 341 335 333 336 335 333 336 339 339 340 338 337 337 336
353 351 349 347 348 348 346 345 345 345 345 345 345 344 344 344 344 342 342 341 341 340 340 340 340 340 339 337 336 334 332 333 334 335 336 335 333 333 336 337 337 337 338 339 339 339 338 337 336 335 335 335 337 337 338 340 339 339 340 340 340 339 340 342 346 347 344 345 344 342 344 341 337 335 335 337 335 335 337 338 339 340 338 337 337
352 350 348 347 349 349 348 346 345 346 345 345 344 344 343 343 343 342 342 341 340 340 340 339 339 339 338 337 336 335 335 336 337 335 334 333 334 336 338 337 338 338 339 340 339 339 338 338 337 336 336 336 337 337 338 339 340 339 339 340 340 342 344 344 347 347 344 345 346 343 342 341 340 338 335 337 337 335 336 337 338 339 339 338 337
353 352 351 350 350 349 349 347 345 346 345 345 345 344 342 342 342 341 341 341 341 341 339 338 338 338 338 337 337 338 339 337 336 335 334 333 335 338 339 338 338 340 340 340 338 338 337 336 336 337 337 337 337 338 339 340 341 341 340 340 341 344 346 346 348 349 345 343 344 343 343 341 341 340 337 336 338 336 335 336 338 338 338 338 337
354 354 354 353 353 351 348 346 346 346 346 347 347 346 342 341 341 341 341 341 341 340 339 337 337 339 338 338 338 340 342 340 339 338 338 337 337 337 337 338 339 340 341 340 338 336 336 335 336 337 338 339 339 339 339 340 340 341 342 341 342 346 347 348 349 349 347 344 342 342 342 342 341 341 339 337 337 338 336 335 337 338 337 337 337
355 355 354 354 353 351 349 348 348 348 349 349 348 348 343 341 343 342 341 341 340 339 339 338 339 341 338 338 339 342 342 339 341 341 341 342 340 338 337 338 339 341 341 340 338 335 335 336 336 337 339 340 341 341 342 342 341 341 341 341 343 347 348 349 349 348 347 345 343 341 340 342 342 342 340 338 337 339 338 335 335 337 337 337 337
355 355 354 353 352 350 350 350 350 348 350 349 348 348 342 341 344 342 342 341 341 340 339 340 341 342 340 339 341 346 346 341 341 341 341 340 339 338 337 339 340 342 342 340 338 336 335 336 337 338 339 341 342 345 347 347 345 344 344 344 347 348 347 349 349 348 345 345 345 342 340 340 341 343 342 340 338 338 339 338 335 335 336 337 336
354 354 354 353 352 351 350 350 350 347 349 349 348 348 343 342 345 344 342 342 342 340 339 340 341 342 342 341 344 350 350 346 342 339 339 338 342 342 339 340 341 343 341 340 341 340 339 339 340 340 342 344 345 347 348 348 348 348 347 347 349 348 347 348 349 347 346 345 345 343 342 340 339 342 343 342 340 339 339 340 338 335 334 335 336
353 353 353 353 351 351 351 350 348 345 348 349 349 349 344 343 347 346 345 344 344 342 340 341 341 342 343 343 347 351 349 350 347 342 342 344 347 346 343 344 344 343 341 342 346 345 344 345 346 346 346 347 347 348 348 347 347 347 347 347 348 348 347 349 349 348 347 346 345 343 343 342 340 339 341 343 342 341 340 340 340 337 335 334 335
354 354 353 353 351 350 351 351 347 344 347 349 351 350 346 348 348 348 349 349 348 346 346 346 345 344 342 346 350 351 350 351 350 348 348 348 349 348 346 346 346 345 343 346 349 348 347 348 348 349 349 348 348 348 347 347 346 344 345 344 343 344 344 346 348 349 348 347 345 343 342 342 342 340 339 341 343 343 341 340 340 339 337 335 335
354 354 354 353 351 350 350 350 348 345 347 349 352 350 347 350 351 350 350 351 351 350 350 350 351 346 342 348 352 352 352 351 352 352 351 350 350 349 348 348 347 347 348 348 349 349 349 348 349 349 349 349 348 348 347 346 343 340 342 341 339 339 340 341 343 346 347 346 344 342 341 340 342 342 340 339 341 343 343 342 341 339 339 338 336
354 354 354 353 352 351 350 351 349 345 346 349 351 351 349 351 353 351 351 352 352 351 352 352 353 350 344 346 349 351 352 351 352 352 351 351 351 350 349 349 348 348 349 349 347 349 349 348 349 349 348 348 347 347 347 344 340 339 341 341 340 339 340 340 341 342 343 343 342 339 339 339 340 342 343 340 339 342 343 343 343 341 339 339 337
354 354 354 354 352 352 350 349 349 345 346 348 349 352 351 352 353 352 351 351 352 352 353 352 353 353 349 345 344 350 352 351 351 352 352 352 352 351 350 349 349 349 349 348 348 349 349 349 349 348 347 346 346 346 344 342 340 340 340 340 339 338 340 341 340 340 340 340 340 338 336 338 339 340 343 342 340 340 342 343 343 342 340 339 338
353 354 354 354 353 353 351 348 348 346 347 349 350 352 353 352 353 352 352 351 350 352 353 353 353 353 353 348 343 346 351 351 352 352 352 353 352 352 351 350 350 349 349 348 349 349 349 349 349 348 346 344 346 344 339 340 340 338 339 340 340 339 338 340 340 340 339 340 341 339 337 338 338 338 340 343 343 340 340 340 341 342 342 341 340
352 353 353 353 353 353 352 348 346 344 345 350 351 352 353 351 351 351 352 351 350 352 352 352 352 351 353 352 345 342 346 350 352 352 353 353 352 352 351 351 350 349 349 349 349 350 350 350 347 345 343 342 343 342 339 340 340 339 340 340 340 339 338 338 338 338 338 339 340 340 338 338 338 338 337 339 343 343 341 339 340 341 342 342 340
352 353 352 353 353 352 352 349 346 342 342 350 352 351 352 349 348 350 353 352 350 350 352 352 352 352 353 352 346 341 342 346 348 348 349 351 351 351 351 350 350 349 348 349 349 348 348 347 345 343 342 342 342 341 341 340 339 339 339 339 339 339 338 338 336 335 336 336 338 340 339 337 338 338 337 337 339 342 343 342 341 341 341 342 340
353 353 353 353 353 352 352 351 349 344 340 348 352 351 352 350 348 350 353 352 349 350 352 353 353 353 353 350 345 341 342 343 343 343 344 348 350 351 351 350 349 349 349 350 348 346 347 347 347 348 346 344 342 342 341 340 339 340 340 339 339 340 339 338 337 336 335 334 337 340 340 339 338 336 335 336 336 339 341 342 342 342 342 342 341
353 353 353 353 353 352 352 352 352 347 340 346 352 352 352 352 351 352 353 352 351 352 353 354 354 354 354 351 346 342 342 343 344 343 343 346 350 351 351 349 349 349 349 349 347 346 348 348 348 349 347 344 342 341 341 341 341 341 341 339 339 340 340 339 338 337 336 336 337 338 339 340 339 337 334 333 334 334 335 336 337 338 339 340 342
353 353 353 353 353 353 352 352 354 351 343 343 349 350 351 352 353 353 352 352 353 355 354 354 355 354 354 353 349 344 342 343 344 344 344 346 349 350 350 350 350 350 349 349 349 347 347 348 348 347 345 343 342 342 340 341 341 342 341 340 340 340 340 339 338 338 338 338 338 339 339 339 340 340 338 336 335 334 333 332 332 332 332 335 340
352 352 353 353 353 353 353 353 353 353 346 341 344 345 348 350 351 352 353 351 351 353 354 354 354 353 353 354 352 347 343 342 343 344 344 345 348 350 349 350 351 350 348 348 348 346 345 347 348 346 344 342 342 342 340 339 341 341 341 340 340 340 340 339 338 338 339 339 338 340 341 340 340 339 338 338 338 337 336 333 331 331 330 331 336
353 353 353 354 354 353 353 353 353 353 347 341 341 342 343 344 345 349 352 350 349 351 353 353 354 354 353 354 354 350 344 343 343 344 345 345 349 350 349 349 349 349 348 347 347 347 347 348 348 346 344 342 341 341 339 339 340 340 340 339 339 340 340 339 339 339 339 339 339 339 340 340 341 341 340 340 340 339 339 337 334 330 328 328 333
352 353 354 355 354 354 353 353 353 353 348 341 340 339 338 339 340 344 347 348 347 350 353 353 353 354 354 355 354 349 344 344 345 345 346 346 347 348 348 348 348 348 348 347 347 348 348 347 346 345 343 341 340 341 339 339 340 340 339 340 340 340 340 339 340 340 340 340 337 336 339 339 340 342 342 342 343 342 342 341 337 334 331 329 330
353 353 355 356 355 355 354 352 351 353 352 344 339 338 339 339 339 342 345 344 344 348 351 352 353 353 353 353 350 345 343 344 345 345 346 346 346 346 348 348 347 348 348 348 349 349 348 346 345 344 341 338 336 338 340 339 339 340 339 340 341 339 339 340 340 340 339 338 336 336 338 339 339 339 340 341 343 344 343 342 340 340 339 337 335
353 354 356 356 354 353 355 353 348 351 354 350 343 340 343 343 340 345 347 343 344 347 347 349 351 350 350 350 347 343 343 345 346 346 346 347 347 347 349 348 348 348 349 350 349 348 348 346 345 340 334 335 336 336 338 338 338 340 340 340 340 340 338 337 339 340 338 336 335 335 336 337 338 338 338 338 339 339 338 338 340 341 342 341 340
354 355 356 357 354 351 354 353 347 346 351 353 348 342 346 347 344 347 349 347 347 347 345 346 348 350 350 349 347 343 343 345 346 346 346 346 347 347 348 348 348 348 349 349 349 348 345 341 336 329 330 337 339 338 338 338 340 340 341 341 339 340 337 336 338 339 336 335 335 334 335 335 335 336 337 336 336 337 335 334 335 337 338 337 338
354 355 357 357 353 350 352 352 347 344 346 350 348 344 346 349 348 350 351 351 351 351 350 350 351 353 352 350 347 345 344 345 345 346 346 346 346 347 347 347 347 349 348 348 346 344 341 334 329 329 335 338 337 338 338 338 341 341 340 340 339 340 339 337 338 337 335 334 334 334 334 333 333 334 335 335 335 337 336 332 328 329 330 330 333
355 355 356 356 352 349 349 349 349 346 344 344 344 346 349 349 350 352 353 352 353 353 355 356 356 355 353 352 350 347 345 346 345 346 346 346 347 347 346 345 346 347 347 344 344 342 337 332 332 335 338 338 337 339 338 337 340 341 338 338 340 340 340 338 338 336 334 333 332 332 332 332 332 332 333 334 334 336 335 328 323 324 324 324 326
355 355 356 356 353 348 346 348 350 348 345 342 341 347 350 350 350 352 353 353 353 354 355 356 356 354 353 353 352 348 345 345 345 346 347 346 346 345 344 343 343 344 342 341 341 340 336 334 338 339 337 337 338 339 339 337 338 340 340 340 339 336 338 340 338 335 334 333 331 331 331 331 332 330 330 331 329 331 334 328 322 322 322 321 322
354 355 355 356 355 351 345 346 348 346 345 344 342 345 349 350 351 350 351 352 351 352 353 353 353 352 352 352 351 348 347 347 346 346 345 344 342 338 337 339 340 339 338 339 340 339 339 339 340 340 338 338 338 337 338 338 338 338 338 340 339 337 339 340 337 335 335 334 333 330 330 331 332 330 329 329 326 327 333 330 323 319 320 320 320
354 355 355 355 356 355 349 345 345 345 345 345 343 343 347 349 350 349 349 349 349 350 351 351 351 351 350 351 350 349 347 346 345 342 340 340 336 331 332 337 339 339 338 339 338 338 340 340 339 339 339 339 337 336 336 336 337 336 334 336 338 339 340 339 337 337 335 334 333 331 330 330 330 330 329 330 329 328 329 328 326 324 322 320 319
356 356 356 356 356 357 355 348 343 343 344 345 344 343 346 348 349 349 350 350 351 352 350 349 350 351 350 350 349 349 347 343 344 341 337 335 331 329 332 337 341 342 341 338 336 337 339 340 340 339 340 337 335 336 337 335 337 337 335 336 338 338 338 338 338 338 336 335 334 330 329 329 328 328 329 329 329 330 327 324 324 326 327 324 320
356 357 358 357 357 357 358 353 345 342 344 345 344 343 345 347 349 349 350 350 351 353 351 350 351 351 350 349 349 351 347 341 344 343 336 333 331 331 333 336 341 343 341 339 338 338 340 340 339 339 338 333 331 335 338 337 336 336 336 337 338 338 336 337 337 336 336 335 334 331 328 329 328 328 328 327 328 329 329 327 324 323 329 328 323
355 357 358 357 357 357 358 357 350 344 345 345 343 342 343 346 347 348 348 350 352 353 352 351 351 349 346 345 345 349 347 340 342 340 337 337 334 333 334 335 340 342 340 339 339 338 339 339 339 338 337 335 333 335 336 337 336 336 337 337 338 338 335 336 335 334 334 333 332 332 329 328 328 328 329 328 327 328 329 330 327 324 327 328 326
355 356 358 357 358 359 359 359 353 345 343 344 343 342 344 345 346 347 349 350 351 351 352 352 352 346 339 340 342 345 345 343 343 339 337 341 339 338 338 338 339 341 340 339 338 338 339 339 338 338 338 338 337 336 335 337 337 337 338 337 337 336 334 334 334 333 334 333 332 331 328 328 329 330 330 328 328 329 328 329 329 329 328 328 328
354 354 357 357 358 359 359 358 352 344 341 343 343 344 346 347 347 347 348 349 348 348 350 352 352 347 340 341 344 345 345 346 346 344 341 344 344 342 341 342 342 341 340 339 338 338 338 338 338 338 338 337 337 336 336 337 336 336 336 335 334 334 333 333 333 332 332 332 333 332 330 329 329 330 330 330 330 330 330 330 329 330 330 328 328
Wind_Speed
12 13 16 17 18 19 19 20 20 20 20 21 22 24 23 22 22 23 23 22 22 22 21 22 22 21 20 19 19 19 18 17 16 15 14 14 15 16 16 15 15 15 15 15 14 15 15 15 14 14 13 13 13 14 13 13 12 12 11 10 10 10 10 10 10 11 12 12 12 12 12 12 12 11 10 9 9 9 7 7 9 10 10 11 12
14 15 16 18 19 18 19 19 18 19 20 21 22 22 22 21 21 22 22 21 20 20 20 20 20 19 18 17 17 16 16 15 14 13 13 14 15 15 15 15 14 14 15 14 14 14 14 14 14 13 13 13 13 13 13 13 13 12 12 11 11 11 10 10 10 10 11 11 11 12 13 12 12 11 10 9 8 8 7 7 9 9 10 11 12
16 16 17 18 20 19 19 19 18 18 20 20 22 22 21 21 21 22 21 21 20 19 18 18 18 17 16 15 15 14 14 13 12 11 12 14 15 15 14 14 14 14 14 13 13 13 13 13 13 12 12 12 12 12 12 12 12 12 12 12 12 12 11 10 9 10 11 11 10 11 12 11 12 12 11 10 8 8 7 7 8 9 10 12 12
17 17 19 20 21 20 19 19 19 18 19 20 20 21 20 21 21 21 21 21 20 19 18 17 17 16 15 14 13 13 13 12 11 11 12 14 14 14 14 13 13 13 13 12 12 11 11 12 11 11 11 12 12 11 11 11 12 11 12 12 12 12 13 11 9 10 10 10 9 9 10 9 12 12 11 10 9 8 8 8 8 10 11 12 11
17 19 19 20 20 20 19 18 19 19 20 19 19 20 19 20 20 20 20 19 18 17 17 17 16 15 15 14 13 13 12 12 11 11 13 14 13 13 13 12 12 12 11 11 11 10 10 10 10 10 11 11 11 11 11 11 11 11 11 11 11 12 12 12 9 9 9 10 10 8 8 8 10 11 10 10 9 8 8 8 9 10 11 12 11
18 19 19 20 20 20 20 19 19 19 19 19 18 19 18 19 19 18 17 15 15 15 16 16 16 15 15 14 13 13 12 11 11 11 12 13 12 12 11 11 10 10 10 10 10 10 10 10 10 10 10 11 10 10 10 10 10 10 10 10 11 11 11 11 9 9 8 9 10 8 6 7 8 10 10 9 9 8 9 8 8 9 10 11 12
20 20 19 20 21 20 20 20 19 19 18 18 18 18 17 18 17 16 15 14 14 14 15 16 15 15 15 14 14 13 12 11 11 11 11 11 11 11 10 9 9 9 9 9 9 9 9 10 11 11 11 10 10 9 9 9 9 9 10 10 10 10 10 11 9 8 8 8 9 7 5 6 6 8 9 8 9 8 9 8 8 9 9 10 12
20 20 20 20 21 21 21 20 19 18 18 18 17 17 17 17 16 15 14 14 14 14 15 15 14 15 15 14 13 12 11 10 10 10 10 10 10 9 9 8 8 8 8 9 9 9 10 11 11 10 10 9 8 8 8 8 8 8 8 9 9 9 10 10 9 9 8 8 8 6 6 6 5 7 8 8 8 8 8 8 8 8 9 9 11
19 20 21 19 21 22 22 21 19 19 18 17 17 17 16 16 15 15 15 15 15 15 15 14 14 14 13 13 12 11 10 10 9 10 9 9 9 8 7 7 6 7 8 8 9 10 11 11 10 10 9 8 7 7 7 7 7 7 7 7 7 8 9 9 8 8 9 8 7 5 6 7 6 6 7 7 7 7 7 7 7 8 9 8 10
18 19 20 19 22 23 23 21 20 19 18 17 16 16 16 15 15 15 16 16 16 15 14 13 13 12 12 11 10 9 9 9 9 9 8 8 8 7 6 6 5 6 7 8 9 9 10 10 9 9 8 7 7 7 6 6 6 6 6 6 6 6 7 7 7 7 8 6 5 5 5 6 6 5 6 7 6 6 6 6 7 8 9 8 8
18 19 20 20 23 23 22 20 20 19 18 17 16 16 16 16 16 16 16 16 15 14 14 13 12 11 10 9 9 8 8 8 8 8 7 7 7 6 5 5 5 6 7 8 9 9 9 9 8 8 8 8 8 7 6 6 6 5 5 5 5 5 5 5 5 6 7 6 3 4 5 4 5 5 6 6 6 6 5 6 7 8 9 9 9
17 19 20 21 22 22 21 20 19 18 18 17 15 15 15 16 16 16 16 15 14 13 13 12 11 11 10 9 9 8 8 8 7 7 6 5 6 5 4 4 4 6 7 8 8 8 8 8 8 8 8 8 8 7 6 5 5 5 4 4 4 4 4 3 4 5 6 5 3 4 6 5 4 4 5 6 5 6 5 6 6 8 9 9 9
16 19 21 21 22 21 19 19 18 17 17 17 16 15 15 15 15 15 15 14 14 12 12 11 11 10 9 9 9 8 8 7 6 6 5 5 4 4 3 3 4 6 7 8 7 7 7 7 7 7 7 7 8 8 6 5 5 4 4 4 4 3 3 3 4 5 5 4 4 4 5 4 3 4 4 4 5 6 5 6 6 7 8 9 8
16 18 20 21 22 20 18 17 17 16 16 16 16 15 14 15 14 14 14 13 12 12 11 10 10 9 9 8 8 8 7 6 5 5 4 4 4 3 2 4 5 6 7 7 7 7 6 6 6 7 7 8 9 9 7 6 5 5 4 4 3 3 3 4 5 5 5 5 3 4 5 3 3 3 4 3 3 6 6 6 6 6 6 8 8
16 18 20 21 21 19 18 16 16 16 15 15 15 14 14 14 13 13 13 12 11 11 10 9 9 8 8 7 7 7 6 6 4 4 3 3 3 2 2 4 4 5 6 7 7 6 6 6 6 7 7 8 8 9 8 7 6 6 5 5 4 3 3 4 5 5 6 6 2 3 5 3 2 2 4 4 3 5 6 6 6 6 5 6 8
17 19 19 20 20 19 18 17 16 16 15 15 15 14 14 14 13 12 11 11 10 9 9 8 8 7 7 7 6 6 5 5 4 3 3 3 2 1 2 3 3 4 5 6 7 7 6 6 6 6 7 7 8 8 8 8 7 7 6 6 5 4 4 5 5 6 5 4 2 3 4 2 3 2 3 5 4 4 5 7 7 7 6 6 7
17 18 18 19 19 18 17 17 16 15 15 15 15 14 13 13 12 11 10 10 9 8 8 8 7 7 6 6 6 5 5 5 4 3 2 2 1 1 1 2 3 3 4 6 7 7 6 6 6 6 6 7 8 7 7 7 7 7 6 6 6 5 4 4 5 4 3 3 3 3 3 2 3 2 1 4 6 6 5 6 7 8 7 6 7
17 17 17 18 17 16 16 16 15 15 15 15 14 13 13 13 11 11 10 9 9 8 8 7 7 7 6 6 5 5 5 4 3 3 2 2 1 1 1 2 3 4 4 5 6 6 6 6 6 6 7 7 7 7 6 7 7 7 6 6 6 5 4 4 4 3 1 1 3 3 2 1 2 2 1 2 5 7 6 5 6 8 8 7 7
16 16 16 16 16 15 15 15 15 15 15 14 13 13 13 12 11 11 10 9 9 8 8 8 7 7 6 6 5 5 4 3 3 2 2 2 2 2 2 3 4 5 5 5 5 5 5 5 6 6 7 8 8 7 7 7 7 7 7 7 7 7 6 5 4 1 1 1 3 3 3 3 1 1 1 2 3 5 6 6 6 7 8 7 7
15 16 16 16 16 16 15 16 16 15 15 13 12 12 12 12 11 11 10 10 9 9 8 8 7 6 6 5 4 4 3 2 2 2 2 3 3 3 2 4 4 5 6 5 5 5 4 4 6 7 8 9 9 8 7 8 8 7 7 7 8 8 7 6 4 1 2 3 4 4 3 4 2 0 1 2 3 3 5 6 6 6 7 8 7
16 16 16 16 16 16 15 15 16 15 14 13 12 11 11 11 11 11 11 10 10 9 8 7 6 5 5 5 4 4 4 3 3 3 3 3 4 3 4 4 5 6 6 6 5 4 3 3 5 7 8 9 9 7 6 7 8 7 8 7 7 9 8 7 4 2 4 4 4 4 4 3 3 1 1 2 3 3 3 5 6 6 7 8 8
17 17 16 16 17 16 15 15 15 15 14 13 12 12 11 11 10 10 10 10 9 9 8 7 6 6 5 5 5 4 5 5 4 4 4 4 4 3 4 6 6 6 6 6 6 4 4 4 5 7 8 8 9 7 7 8 9 8 8 7 7 8 7 6 5 5 4 4 4 5 4 3 2 2 1 2 3 4 4 4 5 6 7 7 8
17 17 17 17 17 17 15 15 15 15 14 13 12 11 11 11 10 10 9 9 9 8 8 7 7 6 5 5 5 5 5 6 5 4 5 5 5 5 6 7 7 7 6 6 6 5 4 5 5 7 8 8 8 7 7 9 9 9 8 8 7 6 7 7 6 6 4 4 5 5 4 4 2 2 2 2 3 5 5 5 5 5 7 7 8
18 16 17 17 17 17 16 15 15 15 14 13 12 12 12 12 11 10 10 9 9 9 8 8 8 7 6 6 6 5 5 6 5 4 5 4 5 7 6 7 8 7 6 5 5 4 4 5 6 7 8 8 8 6 5 6 7 8 7 7 7 7 8 8 7 7 6 6 7 6 4 4 4 2 3 3 3 5 6 6 5 6 6 7 8
17 16 17 17 17 17 16 15 15 15 14 13 13 12 13 12 11 11 10 10 9 9 9 9 9 8 8 7 6 6 6 5 5 4 4 3 3 6 6 7 7 6 6 5 4 5 5 7 7 8 8 8 7 6 6 7 7 7 7 7 7 9 8 8 8 7 8 9 9 8 6 5 5 3 3 3 4 5 7 7 7 7 7 7 8
17 16 17 17 18 18 17 16 15 16 15 13 12 12 13 12 12 11 10 10 10 9 9 9 9 9 9 7 6 6 5 4 5 4 3 3 3 5 8 7 5 5 5 4 4 5 5 6 6 7 8 7 6 7 7 8 8 9 9 9 9 10 10 9 8 7 8 10 10 9 9 7 5 4 4 4 4 5 7 7 8 8 8 7 8
17 16 17 17 18 18 17 16 16 16 15 13 12 12 13 12 11 11 11 11 10 10 9 9 9 9 9 8 7 5 5 5 5 4 4 4 3 4 7 5 4 5 5 4 4 5 5 5 6 7 8 8 6 7 8 8 9 10 10 10 11 11 11 10 8 7 7 9 12 10 9 8 7 6 5 5 5 5 6 7 8 8 9 9 8
16 16 17 17 17 17 17 17 16 16 15 14 13 12 12 12 11 12 11 11 10 10 9 9 9 10 9 9 8 6 5 5 4 5 4 4 4 5 6 4 5 5 5 5 4 5 6 5 7 7 8 8 8 7 8 9 11 11 9 9 10 10 10 9 8 8 6 8 12 12 9 9 8 8 7 6 6 6 6 7 8 9 10 10 10
17 17 17 17 17 18 18 18 17 17 16 15 14 12 12 12 11 12 12 11 11 9 9 8 8 8 8 9 9 7 6 5 5 5 4 5 5 5 6 5 6 5 5 6 4 5 6 6 7 8 8 9 9 8 8 9 10 9 8 8 9 9 8 8 8 8 7 6 9 11 10 9 9 8 8 8 7 7 7 7 8 10 11 12 12
18 17 17 17 18 18 18 18 18 17 17 15 14 13 12 13 12 11 11 12 11 9 9 8 8 7 7 10 11 8 7 6 5 5 5 6 6 6 6 6 6 5 6 6 5 6 6 6 7 8 9 9 9 10 9 8 8 7 8 9 9 8 8 8 8 7 7 5 6 10 11 10 9 9 9 9 9 8 8 8 8 9 11 13 13
18 18 17 17 18 19 19 19 19 18 18 16 14 14 13 14 14 12 11 11 11 10 10 9 8 8 7 12 13 10 9 7 7 7 6 6 6 6 6 6 6 6 7 7 6 6 6 7 9 9 9 10 10 10 10 7 7 8 8 9 9 8 8 7 7 7 6 5 5 9 12 11 10 9 9 9 9 9 8 8 8 9 10 13 14
18 19 18 17 18 19 19 19 19 18 18 16 15 15 14 14 15 13 12 12 12 11 10 9 10 9 9 14 14 11 10 10 11 11 9 7 7 6 7 8 8 8 9 9 9 9 8 9 10 11 10 9 9 8 8 7 7 8 8 9 8 8 8 6 6 6 5 5 6 7 9 11 11 9 9 9 9 9 9 8 8 8 9 12 14
19 19 19 18 18 19 19 19 19 19 19 18 15 15 14 14 14 14 12 13 14 12 11 10 10 10 12 16 15 12 11 12 13 13 11 9 8 8 9 10 10 10 10 11 13 11 8 8 8 9 10 8 7 6 7 7 7 7 7 8 8 8 7 6 6 5 5 5 5 5 5 8 11 11 10 10 9 9 9 9 8 9 9 11 13
19 20 20 20 19 19 19 19 20 20 20 19 17 16 15 14 13 13 13 14 13 12 12 11 11 11 11 14 15 14 13 12 13 13 12 11 9 10 11 12 12 12 13 13 13 9 6 8 7 7 8 7 6 7 7 7 7 7 6 7 7 7 7 6 6 5 5 4 4 5 4 5 7 10 11 11 10 10 10 9 9 9 9 10 11
19 20 21 21 20 20 19 20 20 21 21 21 20 17 16 15 13 13 13 13 12 12 12 11 12 12 10 12 15 14 14 14 13 13 13 12 11 12 12 12 12 13 13 12 13 11 8 8 9 8 7 6 6 7 8 7 8 7 7 7 6 7 6 5 5 4 4 3 4 4 4 4 4 5 8 10 11 11 11 10 10 9 9 9 10
21 20 21 22 21 20 20 19 20 22 22 21 22 20 17 16 14 13 12 13 13 12 12 12 11 12 11 12 14 15 14 13 13 14 14 14 13 13 12 12 15 16 14 13 15 15 11 8 10 8 5 6 6 6 8 8 8 8 7 7 7 7 5 4 4 4 4 3 3 3 3 4 3 4 5 5 8 12 11 10 10 9 9 8 9
22 21 21 23 22 21 21 20 19 21 22 21 21 21 20 18 16 15 14 14 14 12 12 13 12 12 12 11 14 16 14 12 13 14 15 16 15 15 14 14 18 17 16 16 15 14 12 9 9 6 4 7 6 6 8 7 7 8 7 7 7 6 4 4 3 3 5 4 3 3 3 6 6 3 1 1 4 9 10 9 8 8 8 7 8
23 22 21 22 23 23 23 22 20 19 21 22 21 21 20 19 18 16 16 15 15 13 12 13 12 13 13 13 16 17 14 13 13 15 16 17 17 16 15 16 18 17 17 17 14 12 12 9 7 5 6 7 6 6 7 7 7 7 6 6 7 6 3 4 4 2 3 3 4 3 2 4 6 6 7 4 1 4 6 6 6 6 6 7 7
23 23 22 23 24 24 23 24 23 20 19 21 21 21 20 20 19 17 18 17 16 16 14 14 14 14 13 15 18 17 15 15 15 16 17 17 17 16 14 15 17 17 17 15 11 11 9 6 4 6 8 9 8 7 6 6 7 7 7 6 7 5 2 3 3 1 1 2 3 3 3 4 4 5 7 6 5 3 4 5 5 5 5 6 6
24 24 24 24 25 25 23 24 25 22 19 20 21 21 20 20 20 18 18 19 18 18 17 16 15 15 14 15 18 17 15 16 16 17 17 16 15 15 15 15 15 17 17 12 8 8 5 3 4 8 9 9 9 7 5 6 6 6 7 5 5 5 3 2 1 1 1 1 2 4 3 4 5 5 5 5 5 4 4 4 4 5 5 4 4
24 24 25 25 26 25 25 25 26 25 22 21 22 22 21 20 20 20 20 19 18 18 18 18 17 15 14 16 17 17 16 17 17 16 16 15 14 14 14 14 14 14 13 7 4 4 3 5 9 11 9 6 5 5 5 6 5 5 4 3 4 3 3 3 3 1 2 1 2 3 3 3 4 4 5 6 5 6 6 5 4 5 6 5 5
26 26 26 26 26 26 26 26 26 26 26 24 23 21 21 21 20 20 19 17 17 17 17 17 16 14 15 18 18 17 17 16 15 15 14 14 13 12 11 11 10 8 5 2 3 4 6 9 10 8 5 3 3 4 6 7 6 4 2 3 4 4 4 3 2 2 3 1 1 1 2 3 4 3 4 5 5 5 5 5 6 6 6 6 6
27 27 26 27 28 28 28 27 26 27 27 27 25 21 21 21 20 19 18 16 15 15 14 14 14 14 16 17 17 16 15 14 14 14 14 12 10 8 7 7 6 4 3 4 4 5 8 9 6 3 2 3 4 3 5 7 5 4 3 3 4 6 5 2 2 3 2 1 1 1 1 3 3 3 4 4 4 4 6 7 6 6 6 5 6
27 27 27 27 28 30 30 28 28 28 27 27 26 22 20 20 19 18 17 16 15 14 14 14 14 15 15 15 15 15 14 13 14 13 11 8 7 6 6 7 6 5 5 5 4 4 7 5 2 2 2 2 5 3 3 4 4 3 3 4 5 6 3 2 5 4 1 2 2 1 2 3 3 4 4 2 4 3 6 9 8 7 7 6 6
29 29 29 29 29 30 31 30 29 29 28 27 26 24 21 20 19 19 17 17 17 15 15 15 14 14 14 14 13 13 12 12 11 10 8 7 7 7 8 8 7 7 6 4 4 3 3 2 2 3 2 2 4 3 3 4 4 5 3 3 5 4 4 3 3 4 2 3 2 1 4 3 2 7 6 5 7 4 4 9 11 10 9 8 6
30 30 29 29 29 29 31 31 30 29 28 28 26 25 23 21 21 21 19 18 18 17 16 15 14 13 12 12 11 11 10 9 9 9 8 8 9 9 10 9 7 6 4 3 4 3 3 3 4 3 3 4 4 3 4 4 4 5 4 3 4 4 5 5 2 1 2 4 3 5 5 1 1 6 5 4 5 3 2 6 8 9 9 9 7
30 30 29 29 29 28 29 31 32 30 29 29 28 26 24 22 22 21 19 18 18 17 17 16 14 12 10 10 9 9 9 8 8 9 8 8 9 10 10 8 6 5 4 5 4 3 3 4 5 4 4 5 4 3 3 4 4 4 4 3 3 4 4 3 4 3 2 4 3 4 4 2 2 4 3 4 3 2 5 7 6 6 7 9 7
30 30 29 29 29 29 29 31 32 31 30 30 29 28 26 24 23 21 20 19 19 17 16 15 13 11 10 10 9 9 10 8 8 9 9 8 8 8 9 7 6 5 5 5 4 4 5 6 6 5 5 6 4 3 3 3 3 3 4 4 3 4 3 1 3 2 3 5 4 4 5 3 4 3 4 5 3 5 9 9 7 5 4 8 8
31 30 30 29 29 30 29 30 31 32 31 31 30 29 27 25 24 22 20 19 18 17 14 13 13 12 12 12 12 12 11 10 10 11 10 7 7 7 7 7 7 6 5 5 4 5 7 7 6 5 4 4 4 4 3 3 4 3 3 2 2 2 3 2 3 3 3 5 6 4 3 4 6 4 4 5 4 6 7 7 10 7 3 6 7
32 30 30 29 29 30 30 31 32 32 32 32 30 29 28 26 25 23 21 19 18 17 14 13 13 14 14 15 15 13 12 11 11 12 11 8 7 7 7 7 7 6 5 5 6 6 7 6 6 5 4 4 5 4 3 4 4 3 1 1 2 2 2 2 4 4 3 4 6 7 5 7 7 4 4 6 7 7 7 8 10 6 4 5 5
32 31 31 30 29 30 31 32 33 34 33 32 31 29 27 27 26 24 22 20 19 18 17 16 15 16 16 16 15 13 13 11 9 10 10 8 8 8 8 8 7 6 6 7 7 6 6 6 5 6 6 6 6 5 4 5 5 4 3 2 1 2 3 3 4 5 5 4 5 7 8 9 9 7 7 8 10 10 8 9 8 6 7 7 5
Wind_Direction
133 133 129 130 133 135 134 136 135 132 130 130 129 129 127 126 128 130 131 130 129 130 132 131 128 127 125 121 118 117 113 109 105 101 99 98 95 92 89 84 81 80 79 76 71 65 59 55 53 50 46 43 42 42 40 42 47 51 55 56 57 58 50 44 49 50 50 51 54 59 62 65 65 66 69 74 85 90 93 93 95 104 110 110 111
135 133 129 132 132 133 131 131 131 129 129 128 132 133 130 130 131 130 129 130 128 129 132 132 132 130 127 124 122 119 114 110 105 101 99 96 93 90 86 82 79 78 76 71 67 61 57 54 52 51 48 44 42 41 39 38 43 46 48 49 48 47 43 39 41 45 49 49 56 62 63 65 68 70 72 76 84 92 97 95 101 109 116 116 116
134 130 131 136 132 131 130 130 129 129 130 131 134 136 134 134 134 131 130 130 128 129 131 133 135 133 130 127 125 120 115 112 108 103 98 95 91 88 83 80 78 76 74 70 65 59 55 53 52 51 49 44 41 38 36 35 37 40 43 44 43 40 39 40 41 45 47 49 60 61 57 62 69 72 74 78 83 92 98 99 108 114 118 117 117
133 130 133 136 130 131 131 130 130 133 135 134 137 138 137 137 137 135 132 130 127 128 130 134 135 134 133 131 127 120 116 114 108 102 97 95 90 86 80 78 76 74 72 68 63 55 51 49 48 49 48 43 39 35 33 34 33 36 39 38 37 37 38 43 48 50 49 51 65 61 52 59 65 68 69 74 84 94 100 105 117 124 121 116 120
133 132 135 135 132 132 135 136 134 135 138 138 141 141 141 141 141 139 137 132 127 127 129 133 133 134 135 134 129 120 117 113 107 101 97 94 88 84 80 78 76 74 69 64 58 53 49 45 44 44 45 42 37 32 30 32 32 34 35 33 34 36 37 45 55 59 57 56 67 62 58 68 60 61 63 68 81 91 98 102 115 125 121 118 125
138 135 136 138 139 138 139 140 136 135 137 138 141 143 144 145 146 145 144 139 133 131 131 131 132 134 135 134 129 122 118 112 106 100 96 92 87 83 80 78 75 73 66 59 54 49 47 42 40 37 37 38 35 32 29 28 30 32 32 30 32 34 34 45 60 67 69 64 68 63 62 73 60 59 62 67 80 88 94 96 106 115 116 122 130
137 137 137 140 143 142 142 141 136 135 135 135 138 143 145 148 148 148 149 145 140 136 133 131 132 133 134 133 130 125 119 112 105 99 96 93 88 84 81 78 74 67 57 51 46 41 39 36 34 31 29 30 31 30 29 25 27 31 30 29 31 34 32 39 56 70 72 70 76 79 79 75 61 63 67 74 85 92 96 101 108 115 119 127 131
135 137 137 141 145 144 144 142 137 137 137 136 138 141 144 146 145 146 146 144 142 139 135 132 133 134 132 131 130 126 119 111 105 102 100 95 88 83 81 78 73 60 46 41 38 32 30 30 30 29 25 26 25 25 26 23 24 29 29 26 29 32 33 37 53 72 72 72 79 85 90 87 76 68 72 80 88 97 99 100 107 118 122 127 133
134 138 138 142 148 146 143 142 141 142 141 140 141 141 141 141 142 142 141 141 142 141 137 135 137 135 132 132 132 129 121 113 106 105 101 94 88 84 81 76 68 50 38 33 29 26 27 27 26 25 22 21 22 22 24 23 21 23 25 25 28 30 33 42 57 74 70 68 73 81 91 96 96 77 76 83 90 99 101 104 109 120 121 126 133
134 137 139 147 153 148 142 143 147 147 144 143 144 142 141 140 139 141 143 144 144 142 140 141 142 139 136 137 139 134 124 116 109 107 101 95 90 88 86 75 57 40 32 28 24 22 24 23 21 19 16 13 17 20 20 25 22 17 19 22 30 31 33 45 55 71 74 70 69 78 86 101 110 93 84 88 90 95 102 107 109 121 122 124 125
138 140 144 152 155 149 144 146 149 149 148 147 146 143 141 140 139 141 145 146 145 145 145 148 148 146 145 145 144 137 128 121 114 109 103 97 92 91 87 73 44 28 24 23 18 16 17 15 14 13 12 9 10 14 12 22 27 21 17 19 28 31 30 43 59 74 78 81 84 75 77 102 115 96 90 93 90 93 101 103 107 118 120 123 123
143 148 152 154 156 152 147 148 150 150 151 149 148 146 142 140 140 141 144 147 148 148 148 150 150 149 149 147 145 139 134 127 119 113 106 95 89 89 83 61 27 16 19 19 12 9 8 6 7 9 11 6 4 13 14 13 22 25 20 16 18 28 35 44 80 89 75 82 96 79 83 101 100 73 83 96 103 104 101 99 106 118 121 123 123
146 149 156 157 157 155 150 149 150 151 153 154 152 148 144 142 141 142 143 147 150 151 151 150 150 148 147 144 144 141 141 136 127 119 107 94 90 90 77 33 9 12 18 15 6 1 360 1 5 6 9 5 4 15 22 10 10 18 25 25 13 22 41 41 71 88 80 83 94 99 108 110 77 60 74 95 120 123 112 103 106 119 125 123 121
146 148 156 160 159 158 155 152 153 153 155 157 155 151 148 146 144 144 145 148 151 152 152 151 150 148 145 144 144 147 149 145 134 125 109 97 102 98 55 13 4 10 18 14 4 358 358 359 6 7 5 8 8 14 23 17 6 3 19 31 15 17 38 48 59 73 71 66 81 128 128 103 58 64 84 96 132 134 129 121 116 122 129 127 126
141 146 155 159 160 161 160 159 158 157 157 157 156 155 154 152 150 150 150 151 152 152 151 150 151 149 148 149 151 154 153 149 142 134 116 108 115 96 32 10 3 7 17 13 0 357 3 358 5 11 6 11 11 9 18 20 13 3 8 21 21 18 40 63 59 59 59 57 75 131 114 89 52 70 97 103 133 138 138 144 136 130 136 137 136
140 145 154 159 161 162 163 162 162 160 160 160 157 159 159 157 156 156 154 154 154 152 151 152 154 153 152 153 154 156 151 150 150 143 130 125 125 94 30 9 1 3 8 4 357 356 10 11 9 14 8 11 9 6 14 17 17 14 13 16 18 18 34 65 62 53 52 56 72 103 107 98 65 70 106 109 130 143 144 156 153 143 146 152 147
143 146 152 158 162 163 163 163 163 161 162 161 159 163 163 161 161 161 160 157 157 156 156 156 156 153 151 152 152 150 148 152 154 150 148 145 142 122 25 355 351 349 350 353 354 355 9 15 9 11 9 8 5 7 11 11 14 18 20 16 13 16 25 55 63 47 36 43 42 69 109 126 79 71 96 109 128 143 146 156 161 155 153 160 157
146 149 151 155 159 160 162 163 162 162 162 160 160 166 166 163 165 166 165 163 162 164 163 160 156 153 151 149 147 147 151 155 153 153 156 163 178 202 298 327 339 335 334 341 346 348 357 3 360 1 5 9 9 9 9 7 10 9 15 14 8 13 19 42 60 52 26 54 41 50 80 101 93 83 96 115 127 140 146 149 162 164 161 166 164
145 149 152 152 154 156 159 162 162 163 161 161 163 169 169 166 169 169 167 168 168 169 168 164 159 155 152 148 148 150 151 148 150 161 169 177 207 232 280 320 335 327 320 325 333 338 347 353 353 358 2 7 11 11 12 12 11 5 4 5 3 12 22 28 43 63 342 19 31 26 33 32 49 124 130 132 128 143 149 150 159 166 167 170 168
140 144 148 150 153 156 159 161 162 162 161 163 165 170 173 170 171 171 172 174 173 174 172 167 161 158 157 154 151 146 146 157 172 187 189 193 226 254 292 319 326 321 315 316 324 331 341 356 356 1 3 3 7 8 14 14 12 8 3 0 3 11 16 8 4 32 14 15 22 13 22 19 6 156 185 158 144 152 154 160 164 163 169 174 173
144 147 149 152 154 158 159 161 162 161 161 164 167 173 177 174 173 175 178 179 178 177 173 169 165 165 166 160 152 151 166 180 189 203 215 220 237 270 301 312 314 312 311 310 313 322 330 354 0 359 360 357 356 356 7 15 10 9 5 2 9 10 6 359 340 332 357 352 8 15 23 16 354 350 217 193 163 164 159 170 175 170 170 173 176
152 155 157 158 160 163 162 163 163 163 164 166 170 175 178 176 177 181 183 184 184 180 174 173 172 174 174 167 167 175 184 193 201 209 230 247 255 280 302 304 306 304 306 309 307 314 319 332 344 343 348 346 346 353 354 356 357 357 357 3 12 3 347 343 335 336 339 322 351 12 15 11 351 330 266 208 188 181 174 178 182 181 178 174 179
159 161 162 164 166 166 165 166 167 167 167 168 172 175 179 178 179 182 184 188 189 185 181 181 182 184 185 183 184 186 192 207 216 212 236 263 280 292 301 300 300 300 300 307 307 310 313 312 320 326 332 336 348 5 351 341 343 342 346 356 356 338 326 331 333 333 322 302 327 351 1 353 336 312 286 241 206 195 193 193 186 188 189 184 182
164 164 164 168 169 169 168 170 170 170 169 171 175 176 179 180 181 183 186 190 191 191 189 188 193 194 197 199 196 204 210 223 239 231 239 264 294 298 302 297 297 297 291 305 321 323 331 325 319 326 337 346 352 352 334 321 326 327 329 336 323 312 320 324 321 319 312 304 308 324 348 338 324 305 278 266 231 209 205 206 202 198 197 195 190
166 166 167 171 171 171 172 173 173 173 173 174 178 179 180 181 184 187 187 190 193 196 195 198 203 201 205 207 201 219 224 228 260 259 248 250 276 290 293 294 300 300 290 301 330 336 347 341 333 335 341 349 341 320 312 310 313 315 311 310 303 304 311 312 313 313 307 301 297 305 316 316 313 304 272 260 248 228 215 210 211 211 206 204 199
167 168 171 175 175 176 175 176 177 177 178 177 181 182 181 184 189 189 186 190 195 197 200 205 211 209 208 208 208 229 233 225 254 263 256 252 244 269 279 290 297 287 282 292 323 332 333 330 326 327 325 327 319 304 309 313 314 314 311 310 309 306 305 304 306 305 301 297 294 297 301 298 293 293 283 265 250 235 227 218 213 214 213 211 207
170 172 174 177 179 181 179 180 180 181 181 179 183 186 185 185 190 191 187 191 195 196 200 203 214 222 214 205 210 225 237 233 242 249 247 251 243 247 265 285 289 275 283 291 315 317 305 310 313 314 317 316 311 306 307 310 319 325 325 323 323 319 311 307 304 301 302 298 297 298 299 294 279 275 276 268 255 236 230 224 219 218 218 217 214
174 175 176 180 181 183 184 183 184 186 185 184 185 190 190 186 193 196 191 193 196 198 200 201 213 228 223 213 213 216 234 240 238 248 251 247 242 242 254 274 280 283 294 293 300 295 293 304 306 310 315 312 312 312 309 319 335 340 336 326 323 322 313 310 308 300 300 299 298 295 291 290 281 271 267 265 260 247 236 223 220 222 223 223 221
178 178 177 181 182 185 190 188 188 191 190 191 189 190 193 190 198 200 196 199 198 197 202 205 212 223 230 229 223 218 229 241 243 247 248 245 241 241 247 251 256 262 276 286 288 280 290 299 298 306 311 315 315 310 317 330 336 333 324 319 318 318 311 309 309 303 301 294 288 287 287 290 285 274 264 263 263 256 248 235 226 225 225 225 224
182 182 181 183 184 188 193 191 193 194 192 195 194 194 197 196 201 201 202 207 202 199 204 205 214 219 228 242 236 223 222 232 249 251 246 251 249 246 247 243 248 254 260 269 273 276 287 288 288 301 311 316 310 312 336 340 325 324 321 320 323 321 313 308 306 306 309 303 288 291 292 288 285 283 274 267 266 264 257 251 243 233 227 226 225
184 185 185 187 188 190 193 194 196 197 194 195 197 199 203 203 205 205 205 212 209 206 210 206 215 216 219 245 246 233 228 227 235 238 238 249 254 257 254 249 247 250 258 258 261 269 276 275 282 295 304 306 305 324 345 340 320 324 325 322 323 322 318 313 306 304 306 305 296 295 295 292 290 290 287 276 268 268 267 264 259 245 230 227 227
187 188 188 188 190 191 193 196 198 200 197 195 199 203 206 208 209 210 209 216 217 212 216 214 217 216 216 239 248 241 235 232 233 234 236 240 245 251 250 256 255 251 259 258 254 257 266 279 290 301 304 304 315 335 336 332 324 320 325 325 322 322 322 319 315 310 302 296 298 299 301 303 299 294 295 292 279 268 267 267 268 260 241 230 227
191 190 189 190 191 192 194 198 201 204 201 195 201 205 206 211 211 212 213 220 225 220 220 220 222 224 225 239 246 245 242 240 242 242 243 245 245 252 251 253 258 257 256 256 263 268 276 289 296 303 307 311 326 333 322 324 321 313 324 324 321 324 323 329 331 322 309 296 298 304 306 302 299 297 293 290 287 278 271 266 267 270 260 247 236
193 192 193 192 192 193 195 198 201 207 207 199 201 206 206 210 210 212 216 222 227 225 224 224 226 228 232 247 250 245 244 245 248 249 249 251 251 256 256 256 257 257 258 261 271 276 275 283 285 286 297 314 322 318 319 321 316 312 315 316 324 323 322 336 333 322 316 305 300 303 303 295 296 306 302 295 290 282 278 273 265 265 265 262 254
194 194 196 195 194 195 196 199 202 208 210 206 205 209 209 209 210 213 217 221 223 223 226 225 229 233 231 247 254 248 245 246 250 254 255 255 256 256 259 265 261 254 258 263 267 270 271 272 278 283 293 307 308 313 319 317 315 316 314 319 326 318 324 337 328 332 328 311 314 302 291 281 261 275 291 296 296 289 286 282 273 265 264 264 261
196 196 197 197 197 197 198 200 204 210 212 210 210 212 213 211 211 215 219 224 224 223 225 223 225 234 231 238 254 256 250 250 256 261 265 265 263 260 258 262 262 259 264 265 264 273 277 259 267 282 287 292 303 318 319 314 313 312 314 322 319 314 324 325 323 335 317 297 314 315 322 325 283 229 238 273 295 295 292 287 280 271 270 269 264
196 196 196 198 199 199 201 200 204 214 215 213 213 216 219 219 216 217 221 225 227 226 228 228 222 227 231 230 246 257 260 260 263 265 269 269 266 262 261 258 258 259 261 263 266 277 281 270 278 293 284 292 311 319 311 308 305 304 308 312 306 307 314 310 308 316 317 329 345 350 4 355 344 337 333 208 265 283 290 292 283 271 268 265 261
196 197 196 199 200 200 205 204 202 211 218 215 215 220 224 226 225 223 227 228 229 227 228 232 228 226 229 226 237 255 268 269 269 269 268 270 271 269 268 263 258 259 262 266 268 273 280 283 288 291 286 297 312 310 305 297 293 297 302 301 294 291 293 303 300 296 326 348 1 9 351 351 358 356 357 12 351 292 294 299 289 273 262 258 257
196 198 198 200 202 201 205 209 205 202 213 219 218 221 225 228 229 227 230 233 232 231 230 232 233 233 233 236 247 260 270 272 272 272 270 270 274 276 273 268 265 268 272 270 265 271 282 284 267 272 290 303 303 299 300 295 296 295 292 291 288 284 268 279 291 321 10 342 358 9 350 7 16 356 357 9 19 358 321 320 315 295 270 265 270
196 198 199 202 205 203 202 211 212 202 204 216 218 220 221 224 228 225 230 235 234 234 235 236 238 242 243 245 256 266 269 272 275 275 275 275 280 282 278 278 281 281 276 267 266 276 277 267 275 286 295 300 299 300 301 294 292 287 286 281 280 289 290 296 3 42 4 341 346 353 351 13 19 3 358 1 4 347 324 330 328 313 300 291 291
197 198 200 203 207 206 203 210 215 208 203 209 216 218 217 220 224 224 227 232 234 236 238 241 243 244 248 250 258 267 270 274 276 277 279 282 285 284 282 287 288 280 269 258 270 278 271 292 301 303 300 289 281 287 291 288 279 279 288 282 280 287 304 352 52 73 314 317 315 353 6 357 2 10 0 354 0 352 336 322 308 304 306 311 310
197 199 200 203 208 209 207 210 214 213 210 211 216 218 218 219 222 224 225 228 234 236 236 240 242 239 245 253 258 265 271 274 275 277 279 280 281 279 283 290 285 273 263 262 279 279 293 305 310 313 304 285 273 258 263 269 273 284 289 270 268 252 266 336 12 251 270 286 260 325 22 353 345 14 17 6 11 7 343 316 307 302 294 299 301
198 200 201 204 210 211 210 211 212 214 214 215 218 219 220 222 224 225 224 226 231 234 233 233 237 237 241 250 257 262 265 268 270 272 273 273 274 272 278 288 282 268 274 288 286 294 307 312 315 303 248 268 279 244 251 268 276 296 283 252 248 247 247 217 198 232 244 280 266 266 5 359 344 13 42 22 8 6 334 315 316 313 303 301 297
199 200 202 204 208 212 213 211 211 214 216 218 219 219 222 224 226 228 225 225 228 230 231 231 236 240 241 246 254 261 261 261 265 266 264 264 267 271 275 276 269 261 268 283 289 299 310 312 278 230 192 258 273 237 254 286 287 293 278 261 251 248 256 172 179 185 199 280 246 158 9 347 330 351 17 344 328 353 333 319 322 320 314 313 310
200 201 202 203 206 211 214 213 212 215 217 219 220 219 222 224 226 229 228 228 230 230 232 235 239 241 241 241 248 257 257 253 255 256 255 260 269 274 269 262 258 261 266 282 286 266 271 266 233 238 206 256 270 250 266 282 282 276 259 273 263 255 326 351 180 174 210 273 247 250 322 328 315 336 349 332 326 358 349 322 327 329 324 320 316
201 201 202 203 205 209 213 215 214 215 218 220 221 221 222 224 225 228 228 228 230 232 233 235 238 241 240 236 242 248 244 241 244 249 255 266 274 269 257 248 245 253 255 255 260 241 232 235 238 242 227 243 247 244 265 262 273 276 260 276 275 265 313 323 287 252 231 250 264 280 292 273 330 334 353 352 335 6 355 324 331 330 325 325 324
202 202 203 203 205 206 210 215 216 217 219 220 222 221 221 222 224 226 226 228 230 231 235 237 234 236 234 225 231 237 238 239 241 249 258 262 262 249 236 231 225 237 254 259 260 251 248 236 226 224 226 242 230 206 250 254 268 285 269 267 262 261 289 300 300 317 255 243 259 276 267 241 342 327 325 343 331 309 323 319 321 323 319 319 323
203 202 203 203 204 205 207 212 216 216 218 220 221 221 220 220 222 224 226 228 230 229 234 237 228 221 222 219 215 223 237 237 227 241 255 250 242 229 226 225 218 225 242 259 260 230 231 230 224 223 228 249 248 214 232 247 254 263 252 249 244 266 287 281 285 296 280 271 250 241 242 256 336 312 288 328 315 307 327 323 317 326 308 306 318
202 202 203 203 204 204 205 208 213 215 216 219 221 221 221 221 222 224 226 226 227 226 226 230 227 221 224 226 219 221 236 236 226 237 244 237 234 228 229 228 219 224 235 249 253 234 233 233 231 230 230 252 255 228 220 224 239 251 253 241 200 261 286 269 281 285 286 290 277 266 250 266 299 286 277 312 302 310 327 311 314 324 284 292 310
202 202 202 202 202 203 204 206 210 213 216 218 220 221 221 221 223 223 223 222 224 224 218 216 225 228 227 227 226 225 233 234 231 239 235 222 228 227 226 231 225 227 234 234 233 235 239 238 238 238 230 230 234 229 214 219 239 248 236 207 186 246 277 271 276 272 271 289 290 293 282 280 299 297 288 299 293 299 296 290 310 316 287 287 288
201 201 200 200 201 202 204 206 210 213 214 217 219 220 220 220 222 222 222 222 223 223 218 214 219 224 221 221 224 224 229 230 226 235 231 211 215 220 220 229 227 223 234 235 228 228 239 245 240 233 230 225 224 226 213 216 233 224 203 213 237 241 251 264 272 275 288 290 282 287 287 301 321 317 301 293 291 297 291 290 302 290 285 292 280